Tracking 19248 objects as of 26-Sep-2018
HD Live streaming from Space Station
objects crossing your sky now

FENGYUN 1C DEB

Track FENGYUN 1C DEB now!
10-day predictions


NORAD ID: 31349
Int'l Code: 1999-025BRD
Perigee: 851.5 km
Apogee: 956.3 km
Inclination: 99.2 °
Period: 102.9 minutes
Semi major axis: 7274 km
RCS: 0.0157 m2 (small)
Launch date: May 10, 1999
Source: People's Republic of China (PRC)
Launch site: Taiyaun Space Center, China (TSC)

Note: This is SATELLITE DEBRIS
aabbcc
Your satellite tracking list
Your tracking list is empty




NASA's NSSDC Master Catalog

Two Line Element Set (TLE):
1 31349U 99025BRD 18267.06588457 -.00000087 +00000-0 -27923-4 0  9996
2 31349 099.1689 221.5257 0071978 272.0041 087.2880 13.99144981580551
Source of the keplerian elements: AFSPC